ECMWFFLT1_500_spd_132.txt.gz
Wind_Speed
23 25 26 27 29 32 31 27 25 25 24 23 23 23 23 23 24 24 23 23 23 23 22 20 19 16 14 12 11 11 11 11 12 13 14 16 18 19 21 23 24 25 27 29 31 32 33 34 35 36 37 38 38 39 40 40 40 39 39 39 39 40 40
24 25 27 27 28 31 31 26 24 24 23 23 23 24 23 23 24 23 22 22 23 23 22 21 19 16 13 11 11 10 10 11 12 14 15 17 19 21 22 23 24 26 28 29 30 32 33 35 36 37 38 38 39 39 39 39 39 39 40 41 41 42 42
25 26 27 27 27 28 28 25 24 24 24 24 24 23 22 23 23 22 22 23 23 23 21 20 17 14 11 10 10 10 10 11 13 14 16 18 20 21 22 24 25 27 28 30 31 32 34 35 36 37 38 38 38 38 38 38 39 40 40 41 41 41 42
25 25 25 25 25 26 26 24 24 26 26 25 25 24 22 22 22 22 22 23 22 21 20 17 13 10 9 10 10 10 11 12 14 16 18 20 21 22 23 25 26 28 29 31 32 33 34 35 36 37 37 37 37 38 37 38 38 39 39 39 39 39 40
25 25 25 24 24 26 26 25 26 27 27 26 25 23 21 20 20 22 22 22 21 19 16 12 9 9 9 9 9 11 12 14 16 18 20 21 22 23 24 26 28 29 30 31 33 34 35 35 36 37 37 37 37 38 38 38 38 37 38 39 40 40 42
25 25 26 26 25 25 24 24 24 25 25 24 22 20 19 19 20 21 21 20 19 16 12 9 9 9 9 9 11 13 15 17 18 20 21 21 22 24 25 27 28 29 31 32 33 34 35 35 36 36 37 37 38 38 38 39 39 39 40 42 44 45 47
24 24 25 26 25 23 22 22 22 22 23 21 18 17 18 19 20 21 21 19 16 12 10 9 9 9 10 11 13 15 17 18 19 20 21 22 23 25 26 28 29 30 31 32 33 34 34 35 35 36 37 37 38 38 38 39 40 42 44 45 47 49 50
23 23 24 24 23 20 19 20 20 21 20 16 15 16 17 20 21 22 21 17 13 11 10 10 10 10 11 12 14 16 18 19 20 21 22 23 24 26 27 28 29 30 31 32 33 33 34 34 34 35 36 36 37 38 39 41 42 44 47 48 50 52 54
22 23 23 22 20 18 18 19 20 21 18 15 15 15 18 21 22 22 18 14 12 11 11 10 10 11 12 14 15 17 18 20 21 22 23 24 25 26 27 28 29 30 31 32 33 33 33 34 34 34 35 36 37 39 41 43 45 46 49 51 53 55 56
19 20 21 19 18 18 19 19 19 19 17 15 15 16 19 21 21 18 15 12 11 11 10 10 11 12 14 15 16 18 19 20 22 23 24 25 25 26 27 28 29 30 31 32 32 33 33 33 33 34 35 36 37 39 41 44 47 49 51 53 55 56 56
16 18 19 18 17 17 18 17 18 18 16 15 16 19 20 19 16 14 12 11 11 10 10 11 12 13 14 16 17 19 20 21 22 23 24 25 25 26 27 28 29 30 32 32 33 33 33 33 33 34 36 37 39 41 43 46 48 51 53 55 55 56 56
16 17 17 18 17 16 17 17 17 17 16 16 19 20 18 15 13 12 11 11 11 10 11 12 13 14 15 17 19 20 21 22 23 24 24 25 25 26 27 28 29 31 32 33 33 33 32 33 33 35 37 39 41 43 45 47 50 52 54 55 55 56 56
17 17 16 16 15 15 15 15 15 15 17 19 19 17 14 12 12 12 11 11 10 11 12 13 15 16 17 18 20 21 22 23 23 23 24 25 25 26 27 28 30 32 32 33 32 32 32 33 34 36 38 40 42 44 47 49 51 53 54 55 55 56 55
16 16 15 15 16 15 14 16 17 18 19 18 17 14 13 12 12 12 11 11 12 13 14 15 16 17 18 20 21 22 22 22 23 23 24 25 25 26 27 29 31 32 32 32 32 31 32 32 34 37 39 41 43 45 48 50 52 53 53 54 55 54 53
12 13 14 15 15 15 15 17 18 18 17 16 14 13 13 12 12 13 13 14 15 16 16 17 18 19 20 21 22 22 22 22 23 24 24 25 25 26 28 30 31 32 32 32 31 31 31 33 35 37 39 41 43 46 49 50 51 52 52 53 52 51 49
10 11 13 13 13 14 15 17 16 16 15 14 14 13 13 13 14 15 15 16 17 17 18 18 19 20 21 22 22 22 22 22 23 24 24 24 25 27 29 30 32 32 32 31 30 30 31 33 35 37 39 41 44 47 49 50 50 51 52 51 50 48 47
12 12 13 13 13 13 15 15 15 15 15 14 14 15 15 16 16 17 18 18 19 19 19 20 21 21 21 22 22 22 22 23 24 24 24 25 26 27 29 30 31 32 31 30 29 30 31 33 35 37 39 42 44 47 49 49 50 50 50 49 48 46 45
14 13 13 13 13 12 13 14 15 15 15 15 16 16 17 18 18 19 19 20 20 20 20 21 21 22 22 22 22 22 22 24 24 24 24 25 26 28 29 30 31 31 30 29 29 30 31 34 35 37 39 42 44 47 48 49 49 49 48 46 45 44 43
14 13 12 11 11 11 13 15 16 16 16 16 17 18 19 20 20 20 21 20 20 20 21 22 22 22 23 23 22 22 23 24 25 24 25 26 27 28 29 30 30 30 29 29 29 30 32 34 35 37 39 41 44 46 47 48 48 47 45 44 43 43 42
13 12 11 11 10 11 13 15 16 16 17 18 19 20 21 21 22 21 21 21 21 21 22 22 22 23 23 23 23 23 24 25 25 25 25 26 27 28 29 30 30 29 28 28 29 30 32 34 35 36 38 41 43 45 46 46 45 44 42 42 42 41 40
14 13 12 11 11 11 12 14 15 16 18 19 20 21 22 23 23 22 21 21 22 22 22 22 23 24 24 24 24 25 26 26 26 26 26 27 28 28 29 29 29 28 28 28 29 30 32 33 34 36 38 40 42 44 44 44 43 42 41 41 41 40 39
14 14 14 13 12 12 12 14 15 16 18 19 20 22 22 23 23 23 23 22 23 23 23 23 24 25 25 25 26 27 27 27 27 26 27 27 28 28 29 29 28 28 28 28 29 30 31 33 34 35 37 39 41 43 43 43 42 41 40 40 40 39 38
13 14 14 14 13 13 13 14 15 16 17 19 20 21 22 23 24 25 25 25 25 24 24 25 26 26 27 27 28 28 28 28 27 27 27 27 27 28 28 28 28 27 27 28 29 29 31 32 33 34 36 38 40 41 42 42 42 42 41 40 40 39 38
14 14 15 15 15 14 14 15 15 17 18 19 20 21 22 23 25 26 27 27 27 26 27 27 27 28 28 28 29 29 29 28 27 27 27 26 27 27 27 27 27 27 27 28 28 29 30 32 33 33 35 37 39 40 41 42 43 43 42 41 40 39 38
16 16 16 16 16 16 16 16 17 18 18 19 20 21 22 23 25 26 27 28 28 29 29 29 30 30 30 30 30 30 29 28 27 27 26 26 26 27 27 26 26 26 27 27 28 29 30 31 32 33 34 35 37 39 40 42 43 44 44 42 41 40 39
18 18 18 18 18 18 18 18 18 19 20 20 21 21 22 23 24 25 26 28 29 30 31 32 32 32 32 32 32 31 30 29 27 26 26 26 26 26 26 25 25 26 27 27 28 29 30 31 31 32 33 34 36 38 39 41 42 43 44 43 42 41 40
21 20 20 20 20 20 20 21 21 21 21 21 22 23 23 24 25 26 27 29 30 32 33 33 34 34 34 33 33 31 30 29 27 26 26 26 26 25 25 25 25 26 27 28 28 29 30 31 31 31 32 34 35 37 38 40 41 42 42 43 42 42 41
22 22 22 22 22 23 23 23 23 23 23 23 24 24 25 25 26 27 29 30 32 33 33 34 35 35 35 35 34 32 31 29 27 26 25 25 25 25 25 25 26 26 27 28 28 29 30 31 31 31 32 33 35 36 37 38 39 40 41 41 42 41 41
23 23 24 25 24 24 24 24 24 25 25 25 26 26 26 27 28 29 30 31 32 33 34 35 36 37 37 36 34 33 32 29 27 26 25 25 25 25 25 25 26 26 27 28 28 29 30 31 31 32 32 33 34 35 36 37 38 39 40 40 40 40 40
25 25 26 26 25 25 24 25 25 26 26 27 27 27 27 28 29 30 31 32 34 36 36 37 39 40 38 35 33 33 31 27 26 25 25 25 25 24 25 25 26 26 27 28 29 29 30 31 31 32 32 32 33 34 35 36 37 38 39 39 38 38 38
28 28 28 27 26 26 26 26 27 27 28 28 29 28 29 30 31 31 32 33 36 39 39 40 43 41 35 32 32 31 28 25 25 25 25 24 24 24 25 25 26 26 27 28 29 30 30 31 32 31 31 32 32 33 33 34 34 35 36 36 36 36 36
31 31 30 29 28 27 28 28 28 29 29 30 30 30 30 30 30 30 30 31 34 37 38 41 42 37 31 30 30 27 25 25 25 25 25 24 24 24 25 25 26 26 26 27 29 30 30 31 31 31 31 31 32 32 32 32 32 33 34 34 35 35 35
31 31 31 30 29 29 29 29 30 31 31 31 31 31 30 28 28 28 29 29 32 33 33 34 34 30 28 28 27 25 25 25 25 25 24 24 24 24 25 25 25 26 26 27 29 30 30 31 31 32 31 31 31 31 31 31 32 33 33 34 34 34 35
29 30 31 31 30 29 29 29 30 30 31 31 30 29 29 28 27 28 28 29 29 28 26 26 27 26 26 25 24 25 25 25 25 25 24 24 24 24 24 25 25 26 26 27 29 30 30 31 31 32 32 31 31 31 31 31 32 32 33 34 35 35 36
28 30 30 30 29 28 28 28 29 29 30 30 29 29 29 29 29 29 28 27 25 22 21 23 25 25 24 24 24 25 25 24 25 24 24 24 24 24 24 25 25 26 27 27 29 30 30 30 31 32 32 32 31 31 31 31 31 32 33 34 35 36 36
26 28 29 29 28 27 28 29 30 30 30 30 29 29 29 29 29 29 28 26 23 21 22 24 24 23 22 23 24 24 24 24 24 24 24 24 24 24 24 25 26 26 27 27 29 30 30 30 31 32 32 32 32 31 31 31 31 32 33 34 35 35 36
27 27 28 28 28 27 28 30 31 31 30 29 28 28 28 28 29 29 28 26 24 23 24 24 23 22 22 23 23 24 24 24 24 23 23 24 24 24 25 25 26 26 27 28 29 30 30 30 31 32 32 32 32 32 31 31 31 32 33 34 34 35 35

ECMWFFLT1_500_spd_135.txt.gz
Wind_Speed
28 28 28 27 29 30 29 28 28 28 28 29 28 27 28 27 25 23 22 24 25 24 24 23 22 22 22 22 21 18 16 15 15 15 15 15 15 17 18 20 22 24 25 26 28 30 30 31 31 32 32 32 33 33 34 35 36 37 38 39 40 41 42
28 29 29 28 29 29 29 28 27 28 30 30 28 28 29 27 26 24 24 25 24 24 23 22 22 22 23 23 21 17 14 14 14 14 14 14 16 17 19 21 23 24 25 27 29 30 31 32 32 32 32 32 33 34 35 37 38 38 38 38 40 40 41
29 30 28 28 28 29 29 28 28 29 31 30 27 28 29 27 25 23 23 23 22 21 21 22 23 24 24 23 19 15 13 12 13 13 14 15 17 19 20 21 23 24 26 27 29 30 31 31 32 32 32 33 33 34 35 36 38 39 39 39 39 39 40
30 30 28 28 29 29 29 28 28 29 28 27 26 27 29 27 24 22 21 21 20 20 21 23 24 24 23 19 15 13 11 12 12 13 15 16 18 19 20 21 23 24 26 27 29 30 30 31 31 32 32 33 34 35 36 37 37 38 39 40 40 41 43
29 29 28 29 29 28 29 28 27 24 22 23 25 27 29 28 26 24 21 19 18 21 23 24 24 21 18 13 11 10 10 12 13 14 16 17 18 19 20 22 23 25 26 27 28 29 29 30 31 32 32 33 35 37 38 39 39 38 39 40 42 44 46
28 28 29 29 28 27 27 27 24 23 22 24 27 29 29 29 26 22 17 16 18 21 23 22 20 16 12 10 9 10 11 13 14 15 16 17 18 20 21 22 24 25 26 27 28 28 29 30 31 31 32 34 36 37 37 38 39 40 40 42 44 46 48
26 27 28 28 28 27 27 27 25 24 24 25 27 29 29 27 22 17 15 16 19 20 20 18 15 12 10 9 10 11 13 13 14 15 16 18 19 21 22 23 25 26 26 27 27 28 29 30 30 30 32 33 34 35 36 36 38 40 41 43 45 47 48
26 26 26 27 28 28 28 28 27 27 26 25 24 25 25 21 18 16 16 17 19 20 18 16 13 11 10 10 11 13 13 13 14 15 17 19 20 21 23 24 25 26 26 27 27 28 29 29 29 30 31 32 33 34 35 36 38 40 42 44 46 48 49
25 25 24 25 27 27 27 27 26 25 24 23 23 23 21 17 16 15 16 18 20 20 17 14 12 10 11 12 12 12 12 14 15 17 18 20 21 23 24 25 25 26 26 26 27 28 29 29 29 30 30 31 33 34 35 37 39 41 43 45 47 49 50
23 23 23 23 24 25 25 25 24 22 21 21 22 21 17 15 14 15 19 21 20 17 15 12 11 11 12 12 11 12 13 15 16 18 19 21 22 23 24 25 26 26 26 26 27 28 28 28 28 28 29 29 31 33 35 37 39 41 43 45 47 49 51
21 21 21 21 22 21 21 21 21 20 20 20 20 18 14 12 13 18 21 20 17 15 13 12 12 12 12 11 12 13 14 16 17 19 20 22 23 24 25 25 26 26 26 26 27 28 28 27 27 27 27 29 30 32 34 36 39 41 43 45 47 49 50
20 20 19 19 19 18 18 20 20 19 19 19 18 15 13 13 16 19 19 16 14 13 13 12 12 12 11 12 13 14 15 17 18 20 21 22 23 24 25 26 26 26 26 27 27 28 27 27 26 26 27 29 30 32 34 36 38 40 43 45 48 49 51
18 18 18 17 17 16 17 19 20 18 16 17 17 15 14 16 18 17 14 12 13 12 12 12 12 11 12 13 14 15 17 18 20 21 22 23 24 25 26 26 27 26 26 27 27 27 27 26 26 26 27 29 31 32 34 36 38 40 42 45 47 49 51
16 17 17 16 15 16 16 16 16 14 13 14 15 16 16 17 15 13 12 12 12 11 12 12 11 12 13 14 15 17 18 20 21 22 23 24 25 26 27 27 27 26 26 27 27 27 27 26 26 27 28 29 31 32 34 36 38 40 42 44 47 49 51
15 15 14 14 13 14 14 13 12 12 13 14 15 15 14 13 11 11 11 11 10 11 11 12 12 13 14 16 17 18 20 21 23 24 24 25 26 26 27 27 26 26 26 27 27 27 26 26 26 27 28 30 31 33 34 36 38 40 42 45 47 49 51
12 11 10 10 11 12 12 13 13 13 13 13 12 12 11 10 10 10 10 10 10 11 12 13 14 15 16 17 19 20 22 23 24 25 26 26 27 27 27 27 27 27 27 27 27 27 27 26 26 27 29 30 31 33 34 36 37 40 42 44 46 48 50
10 10 11 11 11 11 11 12 12 12 12 11 11 10 10 11 10 10 10 11 12 12 13 14 15 16 18 19 21 22 23 24 25 26 27 27 27 28 28 28 27 27 27 27 27 27 27 27 27 28 29 30 31 33 34 35 37 39 41 43 45 47 49
11 12 13 12 11 11 11 11 10 10 9 9 10 11 11 11 11 11 12 13 14 15 16 16 17 19 20 21 22 23 23 24 26 27 28 28 28 28 28 28 28 28 28 28 28 27 27 27 27 28 29 30 31 32 34 35 36 39 41 43 44 46 48
12 12 13 12 11 10 10 10 9 8 8 9 10 12 12 12 13 14 14 15 16 17 17 18 19 20 22 23 23 23 24 25 27 28 28 28 29 29 29 29 29 28 28 28 28 28 28 27 28 28 29 30 31 32 33 35 36 38 40 42 43 45 46
12 13 13 12 10 10 10 10 9 9 9 10 12 13 13 14 15 15 16 17 18 19 19 19 20 22 23 24 24 24 25 26 27 28 29 29 30 30 31 31 30 29 29 28 28 28 28 27 28 28 29 30 31 32 33 34 36 37 39 40 42 43 44
12 13 14 13 11 11 11 11 10 9 10 11 12 14 14 15 16 17 18 19 19 20 21 21 22 23 24 24 25 26 27 27 28 29 30 30 31 31 32 32 31 30 29 28 28 28 27 27 28 29 29 29 30 31 32 34 35 36 37 39 40 40 41
12 13 14 14 13 12 12 12 12 11 11 12 13 14 15 16 17 18 19 20 20 21 22 23 24 25 25 26 26 27 28 29 29 30 31 31 32 32 32 32 31 30 29 28 28 27 27 27 28 28 28 28 29 31 32 33 34 35 36 37 38 38 39
12 13 13 14 14 14 14 14 14 13 13 13 14 15 16 17 18 19 20 21 21 22 23 25 26 26 27 27 28 28 29 30 31 31 32 32 33 32 32 32 31 30 29 28 28 27 27 27 28 28 28 28 29 30 31 33 33 34 35 36 36 36 37
14 14 13 13 14 15 15 15 14 14 14 15 16 16 17 18 19 20 21 21 22 23 24 25 26 27 28 29 29 30 30 31 32 33 33 33 33 33 33 32 31 30 29 29 28 27 27 27 28 27 27 28 29 30 31 32 32 33 34 34 34 35 35
17 16 15 14 15 15 15 15 16 16 16 17 18 18 19 20 20 21 22 22 23 23 24 25 26 27 28 29 30 31 31 33 34 34 35 34 33 34 34 33 30 29 29 29 29 27 27 27 27 27 27 28 29 30 30 31 31 32 32 33 33 33 35
19 18 17 17 16 16 16 17 17 18 19 19 19 20 20 21 22 23 23 23 24 24 25 26 27 28 29 30 31 32 33 34 35 36 36 34 34 35 35 32 30 29 29 29 28 26 26 27 27 27 28 28 29 30 30 30 31 31 31 32 32 33 34
20 20 20 19 18 18 18 18 19 20 20 20 21 21 22 23 24 24 25 25 25 25 26 28 29 30 30 30 32 34 35 36 37 38 37 34 34 34 32 29 28 29 29 28 27 26 26 26 27 27 28 29 29 29 29 30 30 30 30 32 33 33 33
21 21 21 20 20 19 19 20 20 21 21 22 22 23 24 25 26 26 27 27 26 27 28 29 30 31 32 32 33 36 37 38 41 41 37 33 33 31 28 27 27 28 28 27 26 26 26 26 27 27 28 29 29 29 30 30 30 30 31 32 33 32 32
21 21 21 21 21 21 21 22 22 22 23 23 24 25 26 27 28 29 29 28 28 29 29 31 32 33 33 34 36 38 40 42 44 41 34 31 30 28 26 27 27 27 27 27 26 26 26 27 28 28 29 29 29 30 30 30 31 31 32 33 33 33 33
22 22 22 22 22 23 23 24 24 24 25 25 26 27 28 29 30 31 30 30 30 30 30 31 32 33 33 34 36 39 42 44 42 36 31 29 27 25 25 27 27 27 27 27 26 26 27 28 29 29 29 29 30 30 31 31 31 32 32 33 33 34 33
24 24 24 24 25 26 27 27 27 27 27 27 28 29 30 31 31 32 31 31 30 30 30 30 31 32 32 32 33 35 38 40 36 30 28 27 25 25 26 26 26 27 27 26 26 27 27 28 29 30 29 30 30 31 31 31 32 32 33 34 34 34 34
27 27 28 28 29 30 30 30 30 30 29 29 30 31 32 33 33 32 32 31 30 29 29 30 31 31 31 32 32 31 31 32 30 27 26 25 24 25 25 25 26 27 26 27 27 27 28 29 30 30 30 30 31 31 32 32 32 33 34 34 35 35 35
29 29 28 28 29 30 30 30 30 31 31 31 32 33 33 34 34 34 34 31 29 28 29 29 30 30 31 32 32 28 26 28 27 26 25 25 25 25 25 25 26 27 27 27 27 28 29 29 30 30 30 31 31 32 32 33 33 34 34 35 35 35 35
27 26 25 25 27 27 28 28 29 30 31 32 32 32 33 32 32 32 31 29 28 28 29 29 29 30 30 31 29 26 26 26 26 25 25 25 24 24 25 26 27 27 27 27 28 29 29 30 30 30 30 31 31 32 32 33 33 34 34 35 36 36 36
25 25 25 25 26 26 27 27 27 29 30 31 31 32 33 33 31 30 29 29 29 29 29 29 30 30 29 29 29 27 26 26 25 25 25 24 24 25 25 26 27 27 27 28 28 29 30 30 30 30 30 31 31 32 32 33 33 34 34 35 36 37 37
25 26 27 27 26 27 28 28 27 28 28 30 31 32 33 34 33 30 29 30 30 30 30 30 31 30 30 30 29 28 26 25 25 25 25 25 25 25 26 27 27 27 28 28 29 30 30 30 31 31 31 31 31 32 32 33 33 34 34 35 36 37 37
26 27 28 29 28 28 29 29 29 28 29 30 31 31 32 32 31 30 30 30 31 31 31 31 32 31 30 30 29 27 26 26 26 26 26 25 25 26 27 27 28 28 28 29 30 30 31 31 31 31 31 32 32 32 32 33 33 34 34 35 36 36 37

ECMWFFLT1_500_spd_138.txt.gz
Wind_Speed
27 28 27 27 27 27 28 27 27 27 28 27 25 24 23 22 22 23 24 25 25 24 23 22 22 23 24 23 23 22 22 22 21 19 18 17 17 16 16 17 18 19 20 21 21 21 21 22 23 23 23 23 24 25 26 27 29 31 33 35 35 35 36
28 30 30 30 29 28 28 27 26 26 27 26 25 25 24 23 24 23 24 25 25 25 23 23 23 23 22 21 21 22 22 22 21 19 18 17 15 15 16 17 18 19 20 21 22 22 22 22 22 22 23 24 25 26 27 28 30 31 31 32 32 33 34
29 30 32 31 29 29 29 27 26 26 26 26 25 25 25 25 26 25 25 26 25 24 22 22 22 21 19 20 20 22 22 22 20 19 17 15 14 14 15 16 17 18 19 21 22 22 23 23 22 22 23 24 25 26 27 28 30 31 31 31 32 32 34
28 29 30 30 29 29 29 27 26 26 26 26 26 26 26 27 28 27 26 25 23 21 19 20 20 19 19 20 21 23 23 22 20 17 15 13 13 14 15 16 17 18 20 21 22 23 23 23 23 23 24 25 25 25 26 28 30 31 31 32 32 33 35
28 28 27 27 27 26 27 27 26 27 26 26 26 27 26 26 25 24 24 23 22 21 20 20 19 18 20 22 23 22 20 18 16 14 12 12 13 14 15 16 17 19 20 21 22 23 23 23 23 24 25 26 26 27 28 29 30 30 31 31 32 34 36
28 27 26 26 26 26 26 26 26 26 26 25 25 25 25 24 22 23 23 22 22 22 21 19 18 19 22 23 21 19 16 14 12 11 11 12 13 14 15 17 18 19 20 21 22 23 23 23 24 25 26 27 28 29 30 30 31 30 31 31 33 35 36
27 26 24 24 25 25 26 26 26 26 26 25 24 24 25 24 23 23 23 22 23 22 20 18 18 19 19 19 17 15 13 12 10 10 12 12 13 14 16 17 18 20 21 21 22 23 23 24 25 26 27 28 29 30 31 31 30 30 30 31 33 34 36
26 25 23 23 24 25 26 26 27 27 26 26 25 25 25 25 23 22 22 23 23 21 19 18 17 18 17 16 15 13 11 10 10 11 12 13 14 15 17 18 19 20 21 22 23 23 24 25 26 27 28 28 28 29 30 29 29 29 30 31 33 34 36
23 23 22 22 23 24 24 26 27 27 27 26 26 25 25 24 23 20 20 21 21 20 18 18 18 19 18 16 14 12 10 11 11 12 12 14 15 16 18 19 20 21 22 22 23 24 25 25 26 27 28 29 29 29 29 28 28 29 30 32 33 34 36
22 22 22 22 22 22 23 24 25 25 24 24 24 23 22 21 21 20 20 19 18 18 18 19 20 20 18 15 13 11 10 11 12 12 14 15 16 17 19 20 21 21 22 23 24 25 25 26 27 28 29 29 29 29 28 28 28 29 30 31 33 35 37
22 21 20 21 22 23 23 24 23 21 20 20 20 20 19 19 18 18 18 17 16 17 19 21 21 18 15 12 10 10 10 12 12 13 15 16 17 18 20 21 21 22 23 25 26 26 26 27 27 28 29 29 28 28 27 28 29 29 30 32 33 35 37
21 20 20 20 21 22 22 22 21 19 18 18 18 18 18 17 15 15 14 15 16 19 20 19 16 13 10 9 9 10 11 12 13 14 15 16 18 20 21 21 22 23 25 26 26 27 27 27 28 28 28 28 27 27 27 28 28 29 30 32 33 35 37
18 19 19 19 19 20 20 19 19 18 18 18 17 16 16 14 11 11 13 15 18 18 16 12 10 8 8 9 10 11 12 13 14 15 16 18 19 20 21 22 23 25 26 26 27 27 27 28 28 28 28 27 26 26 27 27 28 29 30 32 33 35 37
16 17 18 17 18 18 17 16 14 14 14 13 11 11 11 12 12 14 15 15 14 13 10 7 7 8 8 9 11 12 13 13 15 16 18 19 20 21 22 23 25 26 26 27 27 28 28 28 29 28 27 27 26 26 26 27 28 29 30 31 33 35 36
15 16 16 15 14 13 12 12 12 11 10 8 8 8 9 11 12 13 12 10 8 7 6 6 7 7 8 10 11 12 13 15 16 18 19 20 21 21 23 24 26 26 27 27 28 28 28 29 29 28 27 27 26 26 26 27 28 29 30 31 32 34 36
13 13 12 11 10 9 10 10 10 9 9 8 8 8 7 7 6 5 4 4 4 4 5 5 6 7 9 10 12 13 15 16 18 19 20 21 21 22 23 25 26 27 27 28 28 29 29 29 28 27 27 26 26 26 27 28 28 28 29 31 32 34 35
11 11 10 10 9 10 10 10 9 8 7 7 7 7 6 4 3 3 2 2 3 4 5 6 7 9 10 12 13 15 16 18 19 21 21 22 22 23 24 26 27 27 28 28 28 29 29 28 28 27 27 26 26 26 27 28 27 27 28 30 32 33 35
11 11 10 10 10 10 10 9 8 7 5 5 5 6 5 4 4 4 4 4 5 6 7 8 9 11 12 14 15 16 18 19 21 22 22 23 23 24 25 27 28 28 28 28 28 28 28 28 28 27 27 26 26 27 28 27 26 27 28 30 31 33 34
11 10 10 10 10 9 9 8 7 6 5 5 6 7 7 6 5 5 5 6 7 8 9 11 12 13 14 15 17 18 19 21 22 23 24 24 25 26 27 28 29 29 28 28 28 28 28 29 28 27 26 26 26 27 27 26 26 27 28 30 31 32 34
11 10 10 9 9 8 8 8 8 7 7 8 9 9 8 7 6 6 6 8 9 10 11 13 14 15 16 17 19 20 21 22 23 25 26 26 27 28 29 29 29 29 29 28 29 29 29 28 28 27 27 27 27 27 26 26 27 28 29 30 31 32 33
12 10 10 9 9 8 9 9 9 9 9 10 11 10 9 8 7 7 8 9 10 12 13 14 16 17 18 19 20 22 23 24 25 26 27 28 29 30 30 31 30 30 29 29 30 30 28 27 27 27 27 27 26 26 26 27 27 28 29 30 31 32 33
12 11 10 9 9 9 10 10 10 10 10 11 11 11 10 9 9 9 10 11 12 13 14 16 17 19 20 21 22 24 25 26 27 27 28 29 30 30 31 32 31 30 29 30 31 30 28 27 27 27 27 26 25 26 27 27 28 28 29 30 31 31 32
13 12 11 11 10 10 10 11 11 12 12 12 11 11 11 11 11 12 12 13 14 15 16 18 19 20 21 22 23 25 25 26 27 28 29 30 30 31 32 33 32 31 30 30 31 29 27 27 27 27 26 25 25 26 27 28 28 29 30 30 30 31 32
14 14 13 12 11 11 11 12 12 13 13 13 12 13 13 13 14 14 14 15 16 17 18 20 21 21 23 24 25 25 26 27 27 28 29 30 31 33 35 36 35 33 31 30 29 27 26 26 26 26 25 25 25 26 28 28 29 29 30 30 30 30 31
15 15 15 14 13 13 13 13 13 14 14 14 14 14 15 15 16 16 17 18 18 19 21 22 23 24 25 26 26 27 27 28 28 28 29 31 34 36 37 39 38 34 31 29 27 26 26 26 26 25 25 24 25 26 28 28 29 29 30 30 30 30 30
16 16 16 15 15 15 15 14 15 15 15 15 16 16 17 17 18 18 19 20 21 22 24 25 25 26 27 27 28 28 28 29 29 29 30 32 35 36 39 41 39 34 30 27 26 25 26 26 25 25 24 24 25 26 28 29 29 29 30 30 30 30 30
16 16 17 17 17 17 17 17 16 17 17 17 17 18 18 19 20 21 22 23 23 25 27 27 27 28 28 28 29 28 29 30 30 31 33 34 35 36 40 43 39 32 28 26 25 25 26 25 25 25 24 24 26 27 28 29 30 30 30 30 30 30 30
16 17 17 18 19 19 19 19 19 19 19 19 19 20 21 22 22 23 25 25 26 28 29 29 29 30 29 29 29 28 29 30 31 31 32 33 32 35 40 41 36 29 26 25 25 26 26 25 25 25 25 25 26 28 29 29 30 30 30 30 30 30 30
18 18 18 19 20 20 20 20 20 21 21 21 22 23 23 24 25 26 27 27 29 31 31 30 31 31 30 29 28 28 29 31 31 31 31 30 29 32 37 36 30 26 25 25 26 26 25 26 26 25 26 26 27 28 29 30 30 30 30 31 31 31 31
19 19 19 20 20 20 21 21 22 22 23 24 24 25 25 27 28 29 29 29 31 33 33 32 32 32 30 29 29 29 30 30 31 31 32 31 27 29 32 31 27 25 25 25 26 26 26 26 26 26 26 27 27 28 29 31 31 31 31 32 32 32 32
21 21 20 20 20 21 22 22 23 24 25 26 27 27 28 30 31 32 31 30 32 34 33 32 33 33 31 29 29 30 30 30 30 31 32 30 27 27 29 28 25 25 25 26 26 26 27 27 27 27 27 27 28 29 30 31 32 32 32 32 32 33 33
22 22 22 22 22 23 23 23 24 26 28 29 30 30 31 32 33 33 31 30 33 36 34 32 33 34 32 29 29 30 30 30 30 31 32 29 26 27 27 26 25 25 26 27 27 27 27 27 27 28 28 28 29 30 30 32 33 33 33 33 33 33 33
24 25 25 25 25 26 25 25 27 28 29 29 29 28 29 31 32 32 31 32 35 36 32 30 31 30 28 28 29 30 31 30 31 31 31 29 28 28 26 25 25 26 27 28 28 28 28 28 28 28 29 29 30 30 31 32 33 34 34 34 34 34 34
28 28 28 28 27 27 26 26 26 26 26 27 26 26 27 30 30 30 30 31 32 32 30 30 29 28 27 28 30 30 30 31 31 31 31 30 30 28 26 25 26 28 28 29 29 29 29 29 29 29 30 30 31 31 32 33 34 35 35 35 35 35 35
30 30 30 28 26 24 23 23 24 25 26 26 27 27 27 28 29 28 28 29 29 30 31 31 29 28 28 29 30 31 31 31 31 31 31 31 30 28 26 25 27 29 29 30 30 30 29 29 30 30 31 32 32 32 33 34 34 36 37 37 37 36 36
28 28 27 24 21 21 22 24 25 27 27 28 28 28 28 28 29 29 29 29 29 30 30 30 29 29 30 30 31 31 32 32 32 32 32 31 29 28 26 27 30 30 30 31 31 31 30 30 31 31 32 32 33 33 34 34 35 36 37 38 38 37 37
25 26 25 23 22 23 24 26 27 28 28 27 28 28 29 29 30 30 30 31 30 29 29 29 30 30 30 31 32 32 33 33 33 33 32 30 29 28 28 29 31 31 31 32 32 32 31 31 32 32 33 33 34 34 35 35 35 36 37 38 39 39 38

ECMWFFLT1_500_spd_141.txt.gz
Wind_Speed
21 21 21 22 24 24 25 26 27 26 25 24 23 23 22 21 20 19 18 17 18 18 20 20 19 18 18 17 18 18 19 19 19 19 19 20 19 17 13 12 14 15 15 16 17 18 19 18 18 18 18 17 17 18 20 21 22 24 26 28 29 29 28
22 22 23 24 24 24 25 27 27 26 24 24 23 23 22 21 20 20 19 18 18 19 20 20 19 18 18 18 18 17 17 17 18 19 20 21 19 16 14 13 14 14 14 15 16 17 17 17 17 18 18 18 18 19 20 21 23 25 26 27 26 26 27
24 25 25 24 24 24 25 26 26 24 23 23 23 22 21 21 21 21 20 19 19 21 22 22 20 19 17 16 16 15 15 16 18 20 22 21 18 15 14 14 14 14 14 15 15 15 16 17 17 17 18 19 20 21 21 22 23 25 25 25 25 26 27
25 26 25 24 25 25 25 25 24 22 21 21 20 21 22 22 21 21 21 20 19 22 23 21 19 17 15 14 14 14 15 17 19 21 21 19 15 14 13 13 13 14 15 16 16 16 16 17 17 17 17 19 20 21 22 22 23 24 24 24 25 26 27
25 24 23 23 24 24 24 23 22 21 21 20 19 20 21 21 21 20 20 20 19 20 21 19 17 16 15 16 15 14 16 19 21 20 17 14 12 12 13 13 14 15 16 16 17 17 17 18 18 18 18 19 20 20 22 23 23 23 24 25 26 27 28
23 23 23 23 24 23 22 20 20 19 19 19 19 20 20 21 20 19 18 18 18 18 18 17 15 15 17 17 15 14 18 20 19 16 12 11 12 12 13 14 15 15 16 17 17 18 18 19 20 19 19 20 20 21 22 23 23 24 25 26 27 27 28
21 21 21 22 22 21 19 19 18 17 17 18 18 19 20 21 21 20 18 18 18 17 16 15 15 16 17 16 15 16 18 16 14 12 12 12 12 12 13 14 15 15 16 17 18 18 19 20 20 21 21 21 21 22 23 24 25 25 25 26 27 27 29
20 20 20 21 21 20 19 18 17 15 16 16 18 19 20 21 22 20 19 20 19 17 15 14 16 17 16 16 16 16 15 13 12 13 13 13 12 13 13 14 15 16 17 17 18 18 19 20 21 21 22 22 23 24 25 25 26 26 26 26 26 27 29
20 20 21 21 21 20 19 17 17 16 17 17 18 19 19 20 20 20 20 20 18 17 15 15 18 18 16 16 16 15 13 12 13 14 13 12 12 13 14 15 15 16 17 17 18 19 20 20 21 22 23 23 24 25 25 26 26 26 26 26 27 28 29
20 20 20 20 20 18 17 17 16 17 18 18 18 17 17 16 17 19 19 17 16 16 14 15 17 17 16 16 16 14 13 13 13 12 12 12 12 13 14 15 16 16 17 17 18 19 20 20 21 22 23 23 25 25 25 25 26 26 26 26 27 28 29
19 20 20 19 17 15 15 15 16 17 17 17 16 16 15 14 15 16 15 15 14 13 13 14 15 15 16 17 15 13 13 12 11 11 11 12 13 14 15 15 16 16 17 17 18 19 20 20 21 23 23 24 25 25 25 26 26 26 26 26 27 28 29
19 19 18 16 14 12 13 14 16 17 16 15 15 14 14 14 14 13 13 12 11 11 11 12 13 15 16 15 12 12 12 11 10 11 12 13 14 15 15 16 16 16 17 18 18 19 20 21 22 23 24 24 25 25 25 26 26 26 26 26 27 28 28
18 18 16 14 12 12 12 13 14 14 13 12 12 11 12 11 11 10 8 7 7 9 11 12 13 14 12 10 10 11 10 10 10 11 13 14 14 15 16 16 17 17 18 18 19 20 21 22 22 23 24 24 25 25 25 26 26 26 25 26 27 27 27
17 16 14 13 12 11 10 10 10 10 10 9 8 7 6 6 6 6 5 5 7 10 12 11 10 9 9 9 10 9 9 9 11 12 13 13 14 16 17 17 17 17 18 19 21 22 22 23 23 23 24 24 24 25 25 26 26 25 25 26 27 27 27
14 13 11 10 9 8 7 7 8 8 8 7 7 6 5 4 4 4 4 5 7 9 9 7 7 8 9 9 9 8 9 10 11 12 12 14 15 16 17 18 18 18 19 21 22 23 23 24 24 24 24 24 25 25 25 26 25 25 26 26 26 27 27
12 10 9 8 8 7 7 8 9 8 6 6 6 5 5 4 3 3 3 4 5 6 7 8 8 8 8 8 8 8 9 10 10 11 13 14 15 16 17 18 19 20 21 22 23 23 24 24 24 25 25 25 25 25 26 26 26 25 25 26 26 27 27
9 8 8 8 8 9 10 10 9 8 6 5 5 4 4 3 3 3 4 5 6 7 7 7 7 7 7 7 7 8 9 10 11 12 13 15 16 17 18 19 20 22 23 24 24 24 24 25 25 26 26 26 25 25 26 26 26 25 25 26 26 27 27
9 8 7 8 10 10 11 10 9 7 5 4 3 3 3 3 3 3 4 5 6 6 6 6 6 5 6 7 8 9 10 11 12 13 15 16 17 18 20 21 22 23 24 25 25 25 25 25 26 26 27 26 25 26 26 26 26 25 25 26 27 27 27
8 8 9 10 10 11 10 10 8 6 5 4 4 4 4 5 5 4 4 5 5 5 5 6 5 5 6 8 9 10 11 13 14 15 17 18 19 21 22 23 24 25 26 26 26 26 27 26 26 27 27 26 26 26 27 26 26 25 25 26 27 27 28
9 9 9 10 10 10 10 9 8 6 5 6 6 6 5 6 6 5 5 4 4 5 6 6 6 7 8 10 11 12 13 14 16 17 19 20 21 22 23 24 25 26 26 27 28 28 28 27 26 27 26 25 26 27 27 26 26 26 26 26 27 28 29
9 9 10 11 10 10 10 9 8 7 7 7 7 6 6 6 7 6 5 5 5 6 7 8 8 9 11 12 13 14 15 16 17 19 20 21 22 23 23 25 27 26 27 28 30 32 31 28 26 26 25 25 26 27 27 27 26 26 26 27 27 28 29
11 10 10 11 11 10 10 9 8 8 8 8 8 7 6 7 7 7 6 6 7 8 9 10 11 12 13 14 14 15 16 18 19 20 21 23 23 23 25 27 28 28 28 30 33 35 34 29 26 25 24 24 26 27 27 27 26 26 26 27 28 29 30
12 11 11 12 12 11 10 10 9 9 9 9 8 8 8 8 8 8 8 8 9 10 11 12 13 14 15 16 16 18 18 19 20 21 23 24 24 25 26 28 29 30 31 31 33 36 35 30 25 24 24 24 26 27 27 27 27 27 27 27 28 29 30
13 13 13 13 13 13 12 11 10 10 10 10 10 9 9 9 10 10 11 11 12 13 14 15 16 17 18 18 19 20 20 21 21 23 25 25 26 27 28 29 30 31 32 32 33 36 35 30 25 23 23 25 26 27 27 27 27 27 27 28 29 30 30
14 14 14 14 14 14 13 13 12 12 12 11 11 11 11 11 11 12 13 14 15 16 17 18 19 20 20 21 22 22 22 22 23 25 26 27 27 28 29 30 31 31 31 31 33 36 34 29 25 23 23 25 26 27 27 27 27 27 27 28 29 30 30
15 15 15 15 14 15 15 15 14 14 13 13 13 14 13 13 13 14 15 16 17 18 20 21 22 22 23 24 24 25 25 24 25 26 27 28 29 29 30 31 32 33 31 29 31 34 33 28 24 23 24 25 26 27 27 27 27 28 28 29 29 29 30
16 16 16 16 16 16 16 16 16 16 16 16 16 16 16 16 16 16 17 18 19 21 23 24 24 25 26 26 26 27 27 26 27 27 28 29 30 31 32 32 32 33 30 28 30 33 31 26 24 24 24 26 27 27 28 28 28 28 29 29 29 30 31
16 16 16 16 17 17 17 17 18 18 18 18 18 18 18 18 19 19 20 21 22 24 26 26 26 27 28 28 28 28 28 28 28 29 29 30 31 32 33 32 32 32 30 28 30 32 29 26 25 24 25 27 27 27 28 28 29 29 30 30 30 30 31
16 16 16 16 17 17 18 18 18 19 20 20 20 20 20 20 21 21 22 23 25 27 29 28 29 30 30 30 29 29 30 30 31 31 31 32 32 33 33 32 32 32 28 27 29 31 29 27 26 26 27 28 28 28 28 29 30 30 30 30 30 31 31
17 17 17 17 18 18 18 19 19 20 20 20 20 20 20 21 22 23 23 25 27 30 32 32 32 32 32 32 31 30 30 30 31 31 32 32 32 33 33 32 32 31 28 26 29 31 29 27 26 27 28 29 29 29 29 30 30 31 31 31 31 32 32
18 18 18 19 19 19 20 20 20 20 20 20 21 21 22 23 24 25 26 28 30 33 35 35 34 33 34 35 32 28 26 27 28 28 29 30 32 33 33 32 32 32 29 28 30 31 30 28 28 28 29 30 30 30 30 31 31 32 32 32 32 33 33
18 19 20 20 21 21 21 21 21 21 21 21 22 22 24 25 26 27 28 29 31 32 33 35 36 33 33 34 30 25 24 26 26 26 27 29 31 32 32 32 33 33 31 30 31 31 30 29 29 29 30 31 31 31 31 32 33 33 33 33 33 34 34
17 18 20 21 22 21 21 21 22 22 23 23 24 25 26 27 27 27 27 27 29 30 30 32 34 31 29 29 26 25 26 27 27 27 28 29 31 32 32 32 32 33 32 30 31 32 31 30 30 30 31 32 32 33 33 33 34 35 35 35 35 35 36
16 18 20 21 22 22 22 23 24 25 25 25 25 26 25 25 24 25 27 27 27 28 27 28 29 29 28 27 26 26 27 27 27 28 29 30 31 32 32 32 32 32 31 30 32 33 32 31 31 31 32 33 34 34 35 35 36 36 36 36 36 36 37
17 19 20 20 21 22 22 23 24 25 24 23 23 23 23 24 24 25 26 27 26 26 26 27 27 28 28 27 27 28 28 28 28 29 30 31 31 31 32 32 32 32 32 32 33 33 32 32 32 32 33 34 35 36 36 37 37 37 38 38 37 38 39
19 20 20 19 19 19 18 18 19 20 21 22 23 23 24 24 23 22 22 24 25 26 26 27 27 27 28 28 28 29 29 29 29 30 31 32 32 33 33 33 33 33 34 34 35 33 32 33 33 33 34 35 36 37 38 39 39 39 39 39 39 39 40
20 20 20 20 20 19 19 18 18 18 20 21 22 22 21 21 21 21 22 24 25 26 27 28 28 28 28 28 29 29 29 29 30 31 32 33 34 34 35 35 34 34 35 36 36 34 33 33 34 35 36 37 37 39 40 40 41 41 41 41 41 41 42